Location: Unspecified
(0.0000°N, 0.0000°E)
Time: 16:17:37
(UTC+00:00)

ITAMSAT 1 - Visible Passes

Search period start: 13 December 2019 00:00
Search period end: 23 December 2019 00:00
Orbit: 784 x 796 km, 98.9° (Epoch: 13 December)

Date Brightness Start Highest point End Pass type
(mag) Time Alt. Az. Time Alt. Az. Time Alt. Az.
13 Dec 8.1 04:57:03 10° NNE 05:02:09 66° ESE 05:07:17 10° S visible
14 Dec 9.8 04:28:26 10° NE 04:32:49 28° ESE 04:37:11 10° SSE visible
15 Dec 10.8 04:01:32 10° E 04:03:29 12° ESE 04:05:27 10° SE visible
16 Dec 7.7 05:08:06 10° NNE 05:13:16 88° E 05:18:27 10° SSW visible
17 Dec 9.2 04:39:10 10° NE 04:43:55 38° ESE 04:48:41 10° S visible
18 Dec 10.5 04:11:22 10° ENE 04:14:35 17° ESE 04:17:48 10° SE visible
18 Dec 11.3 18:27:24 10° WSW 18:28:41 11° WSW 18:29:58 10° W visible
19 Dec 7.6 05:19:17 10° N 05:24:23 69° WNW 05:29:32 10° SSW visible
20 Dec 8.6 04:50:03 10° NNE 04:55:02 52° ESE 05:00:03 10° S visible
21 Dec 10.1 04:21:43 10° NE 04:25:41 23° ESE 04:29:39 10° SSE visible
22 Dec 7.8 05:30:32 10° N 05:35:30 50° WNW 05:40:30 10° SSW visible
